• In Österreich
  • Länderverzeichnis
  • Für 7 Tage
  • Wassertemperatur
  • Satellitenkarten
  • Wetterkarte
  • News
  • Widgets
  • user-avatar
    Anmelden

    Stündliche Wetter Chihachi

    Heute, 25 September, Dienstag

    Zeit Temperatur Niederschläge Wind Luftdruck Luftfeuchtigkeit
    00:00 +5°C° 0.1 mm 6 m/S 733 mmHg 91%
    01:00 +5°C° 0.1 mm 6 m/S 734 mmHg 90%
    02:00 +6°C° 0.1 mm 5 m/S 735 mmHg 90%
    03:00 +5°C° 0 mm 5 m/S 735 mmHg 90%
    04:00 +3°C° 0 mm 5 m/S 736 mmHg 90%
    05:00 +3°C° 0 mm 5 m/S 737 mmHg 91%
    06:00 +3°C° 0 mm 5 m/S 738 mmHg 89%
    07:00 +5°C° 0 mm 5 m/S 738 mmHg 88%
    08:00 +5°C° 0 mm 5 m/S 739 mmHg 87%
    09:00 +6°C° 0 mm 5 m/S 740 mmHg 82%
    10:00 +6°C° 0 mm 5 m/S 741 mmHg 77%
    11:00 +7°C° 0 mm 5 m/S 741 mmHg 72%
    12:00 +8°C° 0.1 mm 5 m/S 742 mmHg 68%
    13:00 +8°C° 0.1 mm 5 m/S 742 mmHg 63%
    14:00 +9°C° 0.1 mm 5 m/S 743 mmHg 58%
    15:00 +8°C° 0.1 mm 5 m/S 743 mmHg 62%
    16:00 +7°C° 0.1 mm 4 m/S 744 mmHg 65%
    17:00 +7°C° 0.1 mm 4 m/S 744 mmHg 69%
    18:00 +6°C° 0 mm 4 m/S 745 mmHg 71%
    19:00 +5°C° 0 mm 4 m/S 746 mmHg 73%
    20:00 +4°C° 0 mm 4 m/S 747 mmHg 75%
    21:00 +3°C° 0 mm 4 m/S 747 mmHg 75%
    22:00 +3°C° 0 mm 3 m/S 748 mmHg 75%
    23:00 +3°C° 0 mm 3 m/S 749 mmHg 75%

    Morgen, 26 September, Mittwoch

    Zeit Temperatur Niederschläge Wind Luftdruck Luftfeuchtigkeit
    00:00 +2°C° 0 mm 3 m/S 749 mmHg 76%
    01:00 +2°C° 0 mm 3 m/S 750 mmHg 78%
    02:00 +1°C° 0 mm 3 m/S 750 mmHg 80%
    03:00 +1°C° 0 mm 3 m/S 750 mmHg 82%
    04:00 +1°C° 0 mm 3 m/S 751 mmHg 84%
    05:00 +2°C° 0 mm 2 m/S 751 mmHg 86%
    06:00 +2°C° 0 mm 3 m/S 751 mmHg 84%
    07:00 +3°C° 0 mm 3 m/S 751 mmHg 81%
    08:00 +4°C° 0 mm 3 m/S 752 mmHg 79%
    09:00 +7°C° 0 mm 3 m/S 751 mmHg 71%
    10:00 +7°C° 0 mm 4 m/S 751 mmHg 62%
    11:00 +10°C° 0 mm 4 m/S 751 mmHg 54%
    12:00 +10°C° 0 mm 5 m/S 750 mmHg 52%
    13:00 +10°C° 0 mm 5 m/S 750 mmHg 51%
    14:00 +12°C° 0 mm 5 m/S 749 mmHg 49%
    15:00 +10°C° 0 mm 5 m/S 748 mmHg 55%
    16:00 +9°C° 0 mm 5 m/S 747 mmHg 62%
    17:00 +8°C° 0 mm 5 m/S 747 mmHg 68%
    18:00 +8°C° 0.7 mm 6 m/S 746 mmHg 74%
    19:00 +7°C° 0.7 mm 6 m/S 745 mmHg 81%
    20:00 +5°C° 0.7 mm 7 m/S 744 mmHg 87%
    21:00 +5°C° 1.4 mm 7 m/S 742 mmHg 88%
    22:00 +5°C° 1.4 mm 7 m/S 741 mmHg 89%
    23:00 +5°C° 1.4 mm 8 m/S 740 mmHg 90%

    übermorgen, 27 September, Donnerstag

    Zeit Temperatur Niederschläge Wind Luftdruck Luftfeuchtigkeit
    00:00 +6°C° 0.7 mm 8 m/S 739 mmHg 90%
    01:00 +6°C° 0.7 mm 8 m/S 738 mmHg 90%
    02:00 +7°C° 0.7 mm 8 m/S 737 mmHg 90%
    03:00 +8°C° 0.9 mm 7 m/S 737 mmHg 91%
    04:00 +8°C° 0.9 mm 6 m/S 737 mmHg 92%
    05:00 +9°C° 0.9 mm 5 m/S 737 mmHg 93%
    06:00 +8°C° 0.2 mm 4 m/S 737 mmHg 91%
    07:00 +8°C° 0.2 mm 4 m/S 738 mmHg 88%
    08:00 +8°C° 0.2 mm 4 m/S 738 mmHg 86%
    09:00 +9°C° 0 mm 5 m/S 738 mmHg 78%
    10:00 +10°C° 0 mm 5 m/S 739 mmHg 70%
    11:00 +10°C° 0 mm 6 m/S 739 mmHg 62%
    12:00 +11°C° 0 mm 6 m/S 739 mmHg 58%
    13:00 +11°C° 0 mm 6 m/S 740 mmHg 55%
    14:00 +11°C° 0 mm 6 m/S 740 mmHg 51%
    15:00 +10°C° 0 mm 5 m/S 740 mmHg 56%
    16:00 +10°C° 0 mm 4 m/S 741 mmHg 60%
    17:00 +10°C° 0 mm 3 m/S 741 mmHg 65%
    18:00 +9°C° 0 mm 3 m/S 742 mmHg 67%
    19:00 +8°C° 0 mm 3 m/S 742 mmHg 69%
    20:00 +7°C° 0 mm 3 m/S 743 mmHg 71%
    21:00 +7°C° 0 mm 3 m/S 743 mmHg 73%
    22:00 +5°C° 0 mm 3 m/S 743 mmHg 75%
    23:00 +5°C° 0 mm 3 m/S 743 mmHg 78%

    28 September, Freitag

    Zeit Temperatur Niederschläge Wind Luftdruck Luftfeuchtigkeit
    00:00 +5°C° 0 mm 3 m/S 742 mmHg 78%
    01:00 +5°C° 0 mm 3 m/S 742 mmHg 78%
    02:00 +5°C° 0 mm 3 m/S 741 mmHg 78%
    03:00 +6°C° 0.1 mm 4 m/S 740 mmHg 81%
    04:00 +7°C° 0.1 mm 5 m/S 739 mmHg 83%
    05:00 +8°C° 0.1 mm 6 m/S 738 mmHg 86%
    06:00 +9°C° 0.4 mm 7 m/S 737 mmHg 87%
    07:00 +11°C° 0.4 mm 7 m/S 735 mmHg 87%
    08:00 +12°C° 0.4 mm 8 m/S 734 mmHg 87%
    09:00 +12°C° 0.6 mm 8 m/S 734 mmHg 86%
    10:00 +12°C° 0.6 mm 8 m/S 734 mmHg 85%
    11:00 +12°C° 0.6 mm 8 m/S 734 mmHg 84%
    12:00 +12°C° 0.6 mm 7 m/S 734 mmHg 81%
    13:00 +12°C° 0.6 mm 7 m/S 734 mmHg 78%
    14:00 +11°C° 0.6 mm 7 m/S 735 mmHg 75%
    15:00 +10°C° 0.1 mm 6 m/S 736 mmHg 77%
    16:00 +8°C° 0.1 mm 6 m/S 737 mmHg 80%
    17:00 +6°C° 0.1 mm 5 m/S 738 mmHg 82%
    18:00 +5°C° 0 mm 4 m/S 740 mmHg 85%
    19:00 +4°C° 0 mm 3 m/S 741 mmHg 88%
    20:00 +4°C° 0 mm 2 m/S 742 mmHg 90%
    21:00 +4°C° 0 mm 2 m/S 743 mmHg 92%
    22:00 +3°C° 0 mm 2 m/S 743 mmHg 94%
    23:00 +3°C° 0 mm 2 m/S 744 mmHg 96%

    29 September, Samstag

    Zeit Temperatur Niederschläge Wind Luftdruck Luftfeuchtigkeit
    00:00 +4°C° 0 mm 1 m/S 744 mmHg 96%
    01:00 +4°C° 0 mm 1 m/S 744 mmHg 95%
    02:00 +4°C° 0 mm 1 m/S 744 mmHg 95%
    03:00 +4°C° 0.1 mm 1 m/S 744 mmHg 94%
    04:00 +3°C° 0.1 mm 2 m/S 745 mmHg 94%
    05:00 +4°C° 0.1 mm 2 m/S 745 mmHg 93%
    06:00 +4°C° 0.1 mm 2 m/S 745 mmHg 92%
    07:00 +5°C° 0.1 mm 2 m/S 746 mmHg 92%
    08:00 +5°C° 0.1 mm 2 m/S 746 mmHg 91%
    09:00 +5°C° 0.2 mm 2 m/S 747 mmHg 89%
    10:00 +6°C° 0.2 mm 2 m/S 748 mmHg 87%
    11:00 +5°C° 0.2 mm 3 m/S 748 mmHg 85%
    12:00 +5°C° 0.1 mm 3 m/S 748 mmHg 80%
    13:00 +7°C° 0.1 mm 3 m/S 749 mmHg 75%
    14:00 +7°C° 0.1 mm 3 m/S 749 mmHg 71%
    15:00 +7°C° 0 mm 3 m/S 750 mmHg 72%
    16:00 +6°C° 0 mm 2 m/S 750 mmHg 74%
    17:00 +6°C° 0 mm 1 m/S 751 mmHg 76%
    18:00 +5°C° 0 mm 1 m/S 751 mmHg 79%
    19:00 +4°C° 0 mm 1 m/S 752 mmHg 81%
    20:00 +3°C° 0 mm 1 m/S 752 mmHg 84%
    21:00 +3°C° 0 mm 1 m/S 753 mmHg 86%
    22:00 +3°C° 0 mm 1 m/S 753 mmHg 88%
    23:00 +3°C° 0 mm 1 m/S 753 mmHg 89%

    30 September, Sonntag

    Zeit Temperatur Niederschläge Wind Luftdruck Luftfeuchtigkeit
    00:00 +2°C° 0 mm 1 m/S 753 mmHg 91%
    01:00 +2°C° 0 mm 1 m/S 753 mmHg 92%
    02:00 +2°C° 0 mm 1 m/S 754 mmHg 93%
    03:00 +2°C° 0 mm 1 m/S 754 mmHg 93%
    04:00 +1°C° 0 mm 1 m/S 753 mmHg 93%
    05:00 +1°C° 0 mm 1 m/S 753 mmHg 93%
    06:00 +1°C° 0 mm 2 m/S 754 mmHg 88%
    07:00 +2°C° 0 mm 2 m/S 754 mmHg 83%
    08:00 +3°C° 0 mm 2 m/S 754 mmHg 78%
    09:00 +4°C° 0 mm 3 m/S 753 mmHg 71%
    10:00 +7°C° 0 mm 3 m/S 753 mmHg 65%
    11:00 +8°C° 0 mm 4 m/S 753 mmHg 58%
    12:00 +8°C° 0 mm 4 m/S 753 mmHg 56%
    13:00 +10°C° 0 mm 4 m/S 752 mmHg 54%
    14:00 +10°C° 0 mm 4 m/S 752 mmHg 52%
    15:00 +8°C° 0 mm 4 m/S 751 mmHg 57%
    16:00 +8°C° 0 mm 3 m/S 751 mmHg 63%
    17:00 +8°C° 0 mm 3 m/S 751 mmHg 68%
    18:00 +7°C° 0 mm 3 m/S 750 mmHg 69%
    19:00 +7°C° 0 mm 3 m/S 750 mmHg 71%
    20:00 +5°C° 0 mm 3 m/S 750 mmHg 72%
    21:00 +5°C° 0 mm 3 m/S 750 mmHg 72%
    22:00 +5°C° 0 mm 3 m/S 750 mmHg 72%
    23:00 +5°C° 0 mm 3 m/S 749 mmHg 71%
    Mehr zeigen